TimeEST,TemperatureF,Dew PointF,Humidity,Sea Level PressureIn,VisibilityMPH,Wind Direction,Wind SpeedMPH,Gust SpeedMPH,PrecipitationIn,Events,Conditions,WindDirDegrees,DateUTC
12:53 AM,35.1,25.0,67,29.73,10.0,West,5.8,-,N/A,,Overcast,280,2013-02-13 05:53:00
1:53 AM,35.1,25.0,67,29.75,10.0,West,6.9,-,N/A,,Overcast,270,2013-02-13 06:53:00
2:53 AM,35.1,23.0,61,29.75,10.0,West,8.1,16.1,N/A,,Overcast,280,2013-02-13 07:53:00
3:53 AM,34.0,21.9,61,29.76,10.0,West,9.2,18.4,N/A,,Overcast,280,2013-02-13 08:53:00
4:53 AM,34.0,21.9,61,29.77,10.0,West,4.6,-,N/A,,Overcast,280,2013-02-13 09:53:00
5:53 AM,33.1,21.9,64,29.77,10.0,West,5.8,-,N/A,,Overcast,280,2013-02-13 10:53:00
6:53 AM,33.1,21.9,64,29.78,10.0,WNW,5.8,-,N/A,,Overcast,290,2013-02-13 11:53:00
7:53 AM,33.1,21.0,61,29.79,10.0,West,6.9,-,N/A,,Mostly Cloudy,270,2013-02-13 12:53:00
8:53 AM,35.1,21.0,57,29.79,10.0,West,8.1,17.3,N/A,,Clear,270,2013-02-13 13:53:00
9:53 AM,37.0,21.0,52,29.79,10.0,WNW,10.4,18.4,N/A,,Clear,300,2013-02-13 14:53:00
10:53 AM,37.9,21.0,51,29.78,10.0,Variable,6.9,-,N/A,,Clear,0,2013-02-13 15:53:00
11:53 AM,39.0,21.0,49,29.76,10.0,NW,8.1,-,N/A,,Clear,320,2013-02-13 16:53:00
12:53 PM,39.9,19.9,45,29.75,10.0,WNW,9.2,-,N/A,,Clear,290,2013-02-13 17:53:00
1:53 PM,39.0,19.0,45,29.75,10.0,North,10.4,-,N/A,,Mostly Cloudy,350,2013-02-13 18:53:00
2:53 PM,37.9,19.0,47,29.75,10.0,West,5.8,-,N/A,,Clear,270,2013-02-13 19:53:00
3:53 PM,37.9,19.0,47,29.75,10.0,Variable,5.8,-,N/A,,Overcast,0,2013-02-13 20:53:00
4:53 PM,35.1,19.9,54,29.74,10.0,North,9.2,-,N/A,,Mostly Cloudy,360,2013-02-13 21:53:00
5:53 PM,35.1,19.0,52,29.75,10.0,NW,5.8,-,N/A,,Overcast,320,2013-02-13 22:53:00
6:53 PM,34.0,21.0,59,29.76,10.0,NNW,6.9,-,N/A,,Overcast,330,2013-02-13 23:53:00
7:53 PM,33.1,19.9,59,29.76,10.0,NNW,5.8,-,N/A,,Overcast,330,2013-02-14 00:53:00
8:53 PM,33.1,19.9,59,29.76,10.0,Calm,Calm,-,N/A,,Overcast,0,2013-02-14 01:53:00
9:53 PM,33.1,19.0,56,29.76,10.0,North,3.5,-,N/A,,Overcast,10,2013-02-14 02:53:00
10:53 PM,32.0,19.0,59,29.76,10.0,NNE,3.5,-,N/A,,Overcast,20,2013-02-14 03:53:00
11:53 PM,30.9,19.0,61,29.75,10.0,NE,3.5,-,N/A,,Overcast,40,2013-02-14 04:53:00